sat.trackr.live / text

‹ back to catalog

STARLINK-35658

NORAD 66126 · 2025-237N

PAYLOAD ACTIVE UNKNOWN

§ Identity

Operator
Country
US
Launch date
2025-10-22
Launch site
AFWTR
Launch vehicle
Mass (kg)
RCS (m²)

Purposes: comms

External: N2YO · Heavens-Above · Gunter

§ Orbital elements

Epoch: 2026-05-25T02:30:46.494720Z

Period
94.10 min
Inclination
53.1608°
Eccentricity
0.0001148
Mean motion
15.30207086 rev/d
Perigee alt
474.4 km
Apogee alt
476.0 km
Semi-major
6,853.3 km
B*
5.1695e-4
RAAN
44.4231°
Arg perigee
55.9940°
Mean anomaly
304.1169°
Rev number
3,430

§ Raw data

STARLINK-356581 66126U 25237N   26145.10470480  .00014986  00000+0  51695-3 0  99982 66126  53.1608  44.4231 0001148  55.9940 304.1169 15.30207086 34306

JSON: /api/v1/satellites/66126 · /tle

For live sub-satellite position, see the globe view (requires WebGL).

§ Visibility from observer

Set your observer location to see the next 7 days of passes ≥ 10°. The values pass through the URL so the page stays shareable.

No JS? Fill the form by hand. The geolocation button needs JavaScript.